NOAA 17 DEB, 48746

Orbit data source: Space-Track

NOAA 17 DEB, 48746 is space debris in SSO originally from a launch on Mon, 24 Jun 2002 UTC launched from the Air Force Western Test Range (AFWTR). Debris objects in space refer to the collection of defunct objects orbiting the Earth. Examples of debris include non-operational satellites, rocket bodies, and fragments generated from explosions, collisions, or faulty payload assembly.

Loading next visibility...
Identifier
48746, 2002-032CF
Orbit
SSO
Country
Flag of USUS
Related business
Manufacturer
Unknown
Mission
Spacecraft
Bus & Motor
Unknown
Mass
Unknown
Launch date (UTC)
2002-06-24 (23 years ago)
Launch vehicle
Unknown
Launch site
Air Force Western Test Range (AFWTR)
Object type
Payload
Rocket body
Debris
Shape & HBR
Unknown shape, 0.1 m
Radar Cross Section
Small (<0.1 m²)

Expand to show TLE details & history
Last TLE update: 2 days ago

TLE from 2 days ago
0 NOAA 17 DEB
1 48746U 02032CF  25348.84693309  .00009066  00000-0  22315-2 0  9996
2 48746  98.7493 311.2036 0040303 124.3873 236.1142 14.51973557245822
Epoch: 2025-12-14T20:19Z
TLE epoch observation values (Epoch: 2025-12-14T20:19:35.018Z)
Latitude
-0.00011°
Longitude
-77.44627°
Altitude
738.198 km
Speed
7.477 km/s
True Right ascension
20h 44m 48s
True Declination
0° 00' 00"
Sunlit
Object was in daylight at epoch
Visualization orbit readout
Latitude
Unknown
Longitude
Unknown
Altitude
Unknown
Speed
Unknown
Apparent Right ascension
Unknown
Apparent Declination
Unknown
Sunlit
N/A
Visualization observer readout
Local Sidereal Time
11:30:56
Azimuth
Unknown
Elevation
Unknown
Doppler factor
Unknown
Orbital elements
Apogee altitude
744.921 km
Perigee altitude
687.735 km
Semi-major axis
7,094.465 km
Eccentricity
0.00403
Inclination
98.7493°
RAAN
311.2036°
Arg. of periapsis
124.3873°
True anomaly
235.73188°
Mean anomaly
236.1142°
Eccentric anomaly
235.92293°
Mean motion
3.63215 °/min
Orbital period
99.11 mins
BSTAR
0.0022315
Loading maneuver chart data...
Computing Atmospheric mass density...
Loading historical data...
Loading historical data...
Loading historical data...
Loading historical data...
Loading historical data...
Loading historical data...
Loading historical data...

Documentation

Showing up to 5 results
|